EW4809 Weather Reports


Display with metric or nautical units.
time (UTC)temp
F
wind
direction
speed
MPH
gust
MPH
rain 1hr
in
rain 24hr
in
rain mn
in
humidity
%
barometer
mb
20260504012129 57 217 0.0 0.0 0.00 0.00 0.00 57 1015.1
20260504011631 57 217 0.0 0.0 0.00 0.00 0.00 56 1015.0
20260504011129 58 217 0.0 0.0 0.00 0.00 0.00 55 1014.9
20260504010627 58 217 0.0 0.0 0.00 0.00 0.00 54 1014.7
20260504010126 59 217 0.0 0.0 0.00 0.00 0.00 51 1014.8
20260504005625 59 217 0.0 0.0 0.00 0.00 0.00 50 1014.7
20260504005126 59 217 0.0 0.0 0.00 0.00 0.00 50 1014.7
20260504004626 60 213 0.0 0.0 0.00 0.00 0.00 49 1014.6
20260504004125 60 209 0.0 0.0 0.00 0.00 0.00 49 1014.5
20260504003625 60 233 0.0 0.0 0.00 0.00 0.00 48 1014.4
20260504003125 60 265 0.0 0.0 0.00 0.00 0.00 48 1014.4
20260504002625 60 257 0.0 1.0 0.00 0.00 0.00 47 1014.2
20260504002125 61 219 0.0 4.0 0.00 0.00 0.00 47 1014.0
20260504001626 61 214 0.0 4.0 0.00 0.00 0.00 45 1014.0
20260504001125 62 177 0.0 4.0 0.00 0.00 0.00 46 1014.2
20260504000625 62 214 1.0 7.0 0.00 0.00 0.00 44 1014.0
20260504000346 63 216 0.0 7.0 0.00 0.00 0.00 43 1014.2
20260503235620 63 229 1.0 9.0 0.00 0.00 0.00 42 1014.0
20260503235113 63 207 1.0 9.0 0.00 0.00 0.00 41 1014.2
20260503234833 64 58 1.0 5.0 0.00 0.00 0.00 41 1014.2
20260503234101 64 231 1.0 8.0 0.00 0.00 0.00 41 1014.2
20260503233821 64 202 1.0 8.0 0.00 0.00 0.00 40 1014.0
20260503233050 64 208 1.0 10.0 0.00 0.00 0.00 39 1014.0
20260503232543 64 196 1.0 10.0 0.00 0.00 0.00 39 1014.0
20260503232037 65 222 1.0 8.0 0.00 0.00 0.00 38 1014.0
20260503231531 65 184 0.0 7.0 0.00 0.00 0.00 39 1014.2
20260503231025 65 202 0.0 7.0 0.00 0.00 0.00 39 1014.3
20260503230518 65 232 1.0 6.0 0.00 0.00 0.00 38 1014.5
20260503230013 65 37 1.0 8.0 0.00 0.00 0.00 37 1014.5
20260503225507 64 105 2.0 8.0 0.00 0.00 0.00 39 1014.7
20260503225000 64 232 2.0 9.0 0.00 0.00 0.00 38 1014.8
20260503224455 64 226 2.0 9.0 0.00 0.00 0.00 39 1014.9
20260503223949 64 255 1.0 8.0 0.00 0.00 0.00 37 1014.9
20260503223930 64 221 1.0 9.0 0.00 0.00 0.00 38 1015.0
20260503222936 63 224 2.0 11.0 0.00 0.00 0.00 38 1015.2
20260503222431 64 32 2.0 11.0 0.00 0.00 0.00 36 1015.3
20260503221925 64 243 1.0 6.0 0.00 0.00 0.00 36 1015.5
20260503221420 64 210 1.0 6.0 0.00 0.00 0.00 36 1015.5
20260503221132 65 237 2.0 11.0 0.00 0.00 0.00 35 1015.3
20260503220643 65 188 2.0 11.0 0.00 0.00 0.00 37 1015.3
20260503220119 65 193 2.0 11.0 0.00 0.00 0.00 34 1015.3
20260503215356 65 158 3.0 11.0 0.00 0.00 0.00 36 1015.6
20260503214849 65 248 3.0 11.0 0.00 0.00 0.00 35 1015.8
20260503214342 65 226 3.0 11.0 0.00 0.00 0.00 35 1015.8
20260503213837 65 221 4.0 14.0 0.00 0.00 0.00 34 1015.8
20260503213331 65 219 4.0 14.0 0.00 0.00 0.00 35 1015.9
20260503213046 65 162 3.0 16.0 0.00 0.00 0.00 37 1015.9
20260503212319 65 254 3.0 16.0 0.00 0.00 0.00 34 1016.1
20260503211813 65 285 3.0 11.0 0.00 0.00 0.00 35 1016.1
20260503211524 65 244 2.0 11.0 0.00 0.00 0.00 36 1015.8
20260503210800 65 124 3.0 14.0 0.00 0.00 0.00 35 1015.7
20260503210301 65 217 5.0 14.0 0.00 0.00 0.00 35 1015.8
20260503205802 65 246 4.0 13.0 0.00 0.00 0.00 34 1015.9
20260503205301 66 181 2.0 14.0 0.00 0.00 0.00 34 1015.9
20260503204800 65 67 2.0 14.0 0.00 0.00 0.00 38 1016.2
20260503204524 65 210 2.0 13.0 0.00 0.00 0.00 34 1016.2
20260503204019 65 214 3.0 13.0 0.00 0.00 0.00 34 1016.3
20260503203518 65 252 4.0 13.0 0.00 0.00 0.00 36 1016.3
20260503202758 65 258 3.0 11.0 0.00 0.00 0.00 33 1016.4
20260503202516 65 235 2.0 11.0 0.00 0.00 0.00 34 1016.5
20260503201757 65 234 2.0 9.0 0.00 0.00 0.00 35 1016.6
20260503201257 65 220 2.0 10.0 0.00 0.00 0.00 36 1016.8
20260503200757 65 214 2.0 10.0 0.00 0.00 0.00 34 1016.8
20260503200257 65 242 3.0 10.0 0.00 0.00 0.00 34 1016.9
20260503195757 64 221 2.0 10.0 0.00 0.00 0.00 34 1016.8
20260503195258 65 206 2.0 9.0 0.00 0.00 0.00 33 1017.0
20260503195007 65 252 2.0 10.0 0.00 0.00 0.00 37 1017.3
20260503194513 65 143 2.0 10.0 0.00 0.00 0.00 34 1017.5
20260503194012 65 123 2.0 14.0 0.00 0.00 0.00 34 1017.7
20260503193250 64 210 3.0 14.0 0.00 0.00 0.00 36 1017.7
20260503192749 64 124 2.0 10.0 0.00 0.00 0.00 40 1017.8
20260503192249 64 229 2.0 9.0 0.00 0.00 0.00 34 1017.8
20260503191749 64 264 2.0 10.0 0.00 0.00 0.00 34 1018.0
20260503191249 64 266 2.0 10.0 0.00 0.00 0.00 38 1018.1
20260503190749 64 231 2.0 9.0 0.00 0.00 0.00 36 1018.1
20260503190248 63 250 1.0 7.0 0.00 0.00 0.00 35 1018.2
20260503185749 63 354 2.0 11.0 0.00 0.00 0.00 36 1018.6
20260503185249 63 66 3.0 12.0 0.00 0.00 0.00 37 1018.7
20260503184749 62 125 3.0 13.0 0.00 0.00 0.00 35 1018.7
20260503184512 63 233 2.0 13.0 0.00 0.00 0.00 36 1018.9
20260503183748 63 193 3.0 14.0 0.00 0.00 0.00 35 1018.9
20260503183248 62 191 4.0 14.0 0.00 0.00 0.00 35 1018.9
20260503182749 63 153 3.0 15.0 0.00 0.00 0.00 34 1018.8
20260503182249 63 124 2.0 15.0 0.00 0.00 0.00 39 1018.9
20260503181749 63 8 2.0 9.0 0.00 0.00 0.00 36 1019.0
20260503181248 62 226 2.0 9.0 0.00 0.00 0.00 38 1019.1
20260503180750 62 229 2.0 8.0 0.00 0.00 0.00 34 1019.2
20260503180249 62 208 2.0 7.0 0.00 0.00 0.00 35 1019.2
20260503175748 61 250 3.0 12.0 0.00 0.00 0.00 36 1019.2
20260503175249 61 239 3.0 12.0 0.00 0.00 0.00 34 1019.4
20260503174749 62 224 2.0 7.0 0.00 0.00 0.00 34 1019.5
20260503174248 62 229 1.0 9.0 0.00 0.00 0.00 36 1019.5
20260503173749 62 226 2.0 12.0 0.00 0.00 0.00 40 1019.5
20260503173249 62 288 2.0 12.0 0.00 0.00 0.00 35 1019.6
20260503172749 62 236 1.0 7.0 0.00 0.00 0.00 36 1019.7
20260503172249 62 110 1.0 7.0 0.00 0.00 0.00 34 1019.7
20260503171749 62 238 1.0 12.0 0.00 0.00 0.00 36 1019.9
20260503171246 62 201 2.0 12.0 0.00 0.00 0.00 37 1020.0
20260503170747 61 166 2.0 9.0 0.00 0.00 0.00 35 1020.1
20260503170244 61 142 1.0 9.0 0.00 0.00 0.00 36 1020.2
20260503160213 60 140 1.0 8.0 0.00 0.00 0.00 38 1020.9
20260503150608 59 259 1.0 7.0 0.00 0.00 0.00 47 1021.2
20260503150103 58 332 1.0 7.0 0.00 0.00 0.00 44 1021.2
20260503131356 47 205 1.0 8.0 0.00 0.00 0.00 71 1021.4
20260503130851 47 212 1.0 6.0 0.00 0.00 0.00 72 1021.3
20260503130343 46 221 0.0 5.0 0.00 0.00 0.00 74 1021.3
20260503110316 0 0.0 0.0 0.00 0.00 0.00 1020.6
20260503090231 32 64 0.0 0.0 0.00 0.00 0.00 95 1020.3
20260503081227 33 64 0.0 0.0 0.00 0.00 0.00 94 1020.0
20260503080727 33 64 0.0 0.0 0.00 0.00 0.00 94 1020.0
20260503080444 33 64 0.0 0.0 0.00 0.00 0.00 94 1020.0
20260503072719 34 64 0.0 0.0 0.00 0.00 0.00 94 1019.8
20260503072213 34 64 0.0 0.0 0.00 0.00 0.00 94 1019.7
20260503071706 34 64 0.0 0.0 0.00 0.00 0.00 94 1019.7
20260503071201 34 64 0.0 0.0 0.00 0.00 0.00 94 1019.8
20260503070655 34 64 0.0 0.0 0.00 0.00 0.00 93 1019.8
20260503070149 34 65 0.0 0.0 0.00 0.00 0.00 93 1019.9
20260503055025 36 64 0.0 0.0 0.00 0.00 0.00 92 1020.1
20260503054524 36 64 0.0 0.0 0.00 0.00 0.00 92 1020.1
20260503054008 36 64 0.0 0.0 0.00 0.00 0.00 92 1020.1
20260503053503 36 64 0.0 0.0 0.00 0.00 0.00 92 1020.1
20260503053216 36 64 0.0 0.0 0.00 0.00 0.00 91 1020.2
20260503052450 37 64 0.0 0.0 0.00 0.00 0.00 91 1020.1
20260503052206 37 64 0.0 0.0 0.00 0.00 0.00 91 1020.1
20260503051438 37 64 0.0 0.0 0.00 0.00 0.00 91 1020.1
20260503051206 37 64 0.0 0.0 0.00 0.00 0.00 91 1020.1
20260503050427 37 64 0.0 0.0 0.00 0.00 0.00 91 1020.1
20260503045921 37 64 0.0 0.0 0.00 0.00 0.00 91 1020.0
20260503045415 38 64 0.0 0.0 0.00 0.00 0.00 91 1020.0
20260503044909 37 64 0.0 0.0 0.00 0.00 0.00 90 1020.0
20260503044627 38 65 0.0 0.0 0.00 0.00 0.00 90 1020.0
20260503043857 38 64 0.0 0.0 0.00 0.00 0.00 90 1020.1
20260503043351 38 64 0.0 0.0 0.00 0.00 0.00 90 1020.2
20260503042852 38 64 0.0 0.0 0.00 0.00 0.00 89 1020.1
20260503042349 38 64 0.0 0.0 0.00 0.00 0.00 89 1020.1
20260503041848 39 65 0.0 0.0 0.00 0.00 0.00 89 1020.0
20260503041604 39 64 0.0 0.0 0.00 0.00 0.00 89 1020.0
20260503040846 39 64 0.0 0.0 0.00 0.00 0.00 88 1020.1
20260503040341 39 64 0.0 0.0 0.00 0.00 0.00 87 1020.1
20260503035839 40 64 0.0 0.0 0.00 0.00 0.00 87 1020.0
20260503035338 40 64 0.0 0.0 0.00 0.00 0.00 88 1020.1
20260503034837 40 64 0.0 0.0 0.00 0.00 0.00 88 1020.1
20260503034338 40 64 0.0 0.0 0.00 0.00 0.00 88 1020.1
20260503033838 40 64 0.0 0.0 0.00 0.00 0.00 87 1020.1
20260503033559 41 64 0.0 0.0 0.00 0.00 0.00 87 1020.0
20260503032837 41 64 0.0 0.0 0.00 0.00 0.00 87 1020.1
20260503032338 41 64 0.0 0.0 0.00 0.00 0.00 88 1020.0
20260503031838 41 64 0.0 0.0 0.00 0.00 0.00 87 1020.0
20260503031542 42 64 0.0 0.0 0.00 0.00 0.00 86 1020.0
20260503031425 41 64 0.0 0.0 0.00 0.00 0.00 87 1020.0
20260503030824 42 64 0.0 0.0 0.00 0.00 0.00 86 1020.0
20260503025837 42 64 0.0 0.0 0.00 0.00 0.00 85 1020.0
20260503025824 43 64 0.0 0.0 0.00 0.00 0.00 84 1020.0
20260503024836 43 64 0.0 0.0 0.00 0.00 0.00 84 1019.9
20260503024333 43 64 0.0 0.0 0.00 0.00 0.00 83 1019.8
20260503023833 43 64 0.0 0.0 0.00 0.00 0.00 82 1019.8
20260503023326 44 64 0.0 0.0 0.00 0.00 0.00 84 1019.7
20260503023052 44 64 0.0 0.0 0.00 0.00 0.00 84 1019.7
20260503022326 44 64 0.0 0.0 0.00 0.00 0.00 84 1019.6
20260503022045 44 64 0.0 0.0 0.00 0.00 0.00 83 1019.5
20260503021323 44 64 0.0 0.0 0.00 0.00 0.00 81 1019.4
20260503020823 45 64 0.0 0.0 0.00 0.00 0.00 83 1019.4
20260503020319 45 64 0.0 0.0 0.00 0.00 0.00 82 1019.4
20260503015819 45 64 0.0 0.0 0.00 0.00 0.00 82 1019.3
20260503015320 45 297 0.0 0.0 0.00 0.00 0.00 80 1019.2
20260503014821 46 297 0.0 0.0 0.00 0.00 0.00 80 1019.1
20260503014317 46 297 0.0 0.0 0.00 0.00 0.00 80 1019.0
20260503013816 46 297 0.0 0.0 0.00 0.00 0.00 79 1019.0
20260503013313 46 297 0.0 0.0 0.00 0.00 0.00 78 1018.9
20260503012815 46 297 0.0 0.0 0.00 0.00 0.00 74 1018.9
20260503012310 47 297 0.0 0.0 0.00 0.00 0.00 76 1018.8